Probability
0 0 0 0 0 0 0 0 0 0 0 0 0 0 0 0 0 0 0 0 0 0 0 0 0 0 0 0 0 0 0 0 0 0 0 0 3 0 0 0 0 0 0 0
0 0 0 0 0 0 0 0 0 0 0 0 0 0 0 0 0 0 0 0 0 0 0 0 0 0 0 0 0 0 0 0 0 0 0 0 0 0 0 0 0 0 0 0
0 0 0 0 0 0 0 0 0 0 0 0 0 0 0 0 0 0 0 0 0 0 0 0 0 0 0 0 0 0 0 0 0 0 0 0 0 0 0 0 0 0 0 0
0 0 0 0 0 0 0 0 0 0 0 0 0 0 0 0 0 0 0 0 0 0 0 0 0 0 0 0 0 0 0 0 0 0 0 0 0 0 0 0 0 0 0 0
0 0 0 0 0 0 0 0 0 0 0 0 0 0 0 0 0 0 0 0 0 0 0 0 0 0 0 0 0 0 0 0 0 0 0 0 0 0 0 0 0 0 0 0
0 0 0 0 0 0 0 0 0 0 0 0 0 0 0 0 0 0 0 0 0 0 0 0 0 0 0 0 0 0 0 0 0 0 0 0 0 0 0 0 0 0 0 0
0 0 0 0 0 0 0 0 0 0 0 0 0 0 0 0 0 0 0 0 0 0 0 0 0 0 0 0 0 0 0 0 0 0 0 0 0 0 0 0 0 0 0 0
0 0 0 0 0 0 0 0 0 0 0 0 0 0 0 0 0 0 0 0 0 0 0 0 0 0 0 0 0 0 0 0 0 0 0 0 0 0 0 0 0 0 0 0
0 0 0 0 0 0 0 0 0 0 0 0 0 0 0 0 0 0 0 0 0 0 0 0 0 0 0 0 0 0 0 0 0 0 0 0 0 0 0 0 0 0 0 0
0 0 0 0 0 0 0 0 0 0 0 0 0 0 0 0 0 0 0 0 0 0 0 0 0 0 0 0 0 0 0 0 0 0 0 0 0 0 0 0 0 0 0 0
0 0 0 0 0 0 0 0 0 0 0 0 0 0 0 0 0 0 0 0 0 0 0 0 0 0 0 0 0 0 0 0 0 0 0 0 0 0 0 0 0 0 0 0
0 0 0 0 0 0 0 0 0 0 0 0 0 0 0 0 0 0 0 0 0 0 0 0 0 0 0 0 0 0 0 0 0 0 0 0 0 0 0 0 0 0 0 0
0 0 0 0 0 0 0 0 0 0 0 0 0 0 0 0 0 0 0 0 0 0 0 0 0 0 0 0 0 0 0 0 0 0 0 0 0 0 0 0 0 0 0 0
0 0 0 0 0 0 0 0 0 0 0 0 0 0 0 0 0 0 0 0 0 0 0 0 0 0 0 0 0 0 0 0 0 0 0 0 0 0 0 0 0 0 0 0
0 0 0 0 0 0 0 0 0 0 0 0 0 0 0 0 0 0 0 0 0 0 0 0 0 0 0 0 0 0 0 0 0 0 0 0 0 0 0 0 0 0 0 0
0 0 0 0 0 0 0 0 0 0 0 0 0 0 0 0 0 0 0 0 0 0 0 0 0 0 0 0 0 0 0 0 0 0 0 0 0 0 0 0 0 0 0 0
0 0 0 0 0 0 0 0 0 0 0 0 0 0 0 0 0 0 0 0 0 0 0 0 0 0 0 0 0 0 0 0 0 0 0 0 0 0 0 0 0 0 0 0
0 0 0 0 0 0 0 0 0 0 0 0 0 0 0 0 0 0 0 0 0 0 0 0 0 0 0 0 0 0 0 0 0 0 0 0 0 0 0 0 0 0 0 0
0 0 0 0 0 0 0 0 0 0 0 0 0 0 0 0 0 0 0 0 0 0 0 0 0 0 0 0 0 0 0 0 0 0 0 0 0 0 0 0 0 0 0 0
0 0 0 0 0 0 0 0 0 0 0 0 0 0 0 0 0 0 0 0 0 0 0 0 0 0 0 0 0 0 0 0 0 0 0 0 0 0 0 0 0 0 0 0
0 0 0 0 0 0 0 0 0 0 0 0 0 0 0 0 0 0 0 0 0 0 0 0 0 0 0 0 0 0 0 0 0 0 0 0 0 0 0 0 0 0 0 0
0 0 0 0 0 0 0 0 0 0 0 0 0 0 0 0 0 0 0 0 0 0 0 0 0 0 0 0 0 0 0 0 0 0 0 0 0 0 0 0 0 0 0 0
0 0 0 0 0 0 0 0 0 0 0 0 0 0 0 0 0 0 0 0 0 0 0 0 0 0 0 0 0 0 0 0 0 0 0 0 0 0 0 0 0 0 0 0
0 0 0 0 0 0 0 0 0 0 0 0 0 0 0 0 0 0 0 0 0 0 0 0 0 0 0 0 0 0 0 0 0 0 0 0 0 0 0 0 0 0 0 0
0 0 0 0 0 0 0 0 0 0 0 0 0 0 0 0 0 0 0 0 0 0 0 0 0 0 0 0 0 0 0 0 0 0 0 0 0 0 0 0 0 0 0 0
0 0 0 0 0 0 0 0 0 0 0 0 0 0 0 0 0 0 0 0 0 0 0 0 0 0 0 0 0 0 0 0 0 0 0 0 0 0 0 0 0 0 0 0
Height
5723 5723 5721 5720 5720 5720 5719 5718 5718 5717 5717 5717 5717 5718 5718 5718 5719 5721 5722 5724 5725 5726 5727 5729 5731 5732 5733 5734 5736 5738 5740 5742 5744 5745 5747 5749 5750 5752 5755 5756 5757 5758 5758 5759
5723 5721 5720 5719 5719 5718 5718 5717 5716 5716 5715 5715 5715 5716 5716 5716 5717 5718 5719 5721 5721 5723 5724 5726 5727 5729 5730 5731 5733 5734 5736 5738 5739 5740 5741 5743 5744 5746 5748 5749 5750 5751 5752 5752
5721 5721 5719 5718 5717 5717 5716 5715 5715 5714 5713 5712 5712 5713 5714 5713 5713 5715 5716 5717 5718 5719 5721 5722 5723 5724 5726 5727 5728 5730 5731 5732 5733 5735 5736 5738 5738 5739 5742 5743 5744 5744 5745 5746
5719 5718 5717 5716 5716 5715 5714 5713 5712 5711 5710 5710 5710 5710 5711 5710 5710 5711 5712 5713 5714 5715 5717 5718 5719 5720 5721 5722 5723 5724 5726 5727 5728 5729 5731 5732 5733 5734 5736 5736 5737 5738 5738 5738
5717 5715 5714 5714 5713 5712 5711 5710 5709 5708 5707 5707 5707 5706 5708 5707 5707 5707 5708 5709 5710 5711 5712 5713 5714 5715 5716 5717 5717 5719 5720 5721 5722 5724 5725 5726 5727 5728 5728 5729 5730 5731 5731 5731
5714 5713 5711 5711 5709 5708 5707 5707 5706 5704 5704 5704 5703 5702 5703 5703 5703 5703 5704 5704 5705 5706 5707 5708 5708 5709 5710 5711 5712 5713 5714 5715 5716 5717 5718 5719 5720 5721 5722 5722 5723 5723 5724 5724
5711 5709 5708 5706 5706 5705 5704 5703 5701 5700 5699 5699 5698 5698 5699 5699 5698 5698 5698 5699 5699 5700 5701 5702 5703 5703 5704 5705 5706 5707 5707 5708 5710 5711 5711 5712 5713 5714 5715 5715 5716 5716 5716 5716
5706 5706 5704 5702 5701 5700 5698 5698 5697 5695 5694 5694 5693 5693 5695 5694 5694 5693 5693 5694 5694 5695 5695 5696 5696 5697 5698 5698 5699 5700 5701 5702 5703 5704 5704 5705 5706 5706 5707 5708 5708 5708 5708 5708
5700 5700 5699 5697 5696 5695 5693 5692 5691 5690 5688 5688 5688 5689 5690 5689 5688 5688 5688 5688 5688 5688 5689 5689 5690 5690 5691 5692 5692 5693 5694 5695 5696 5696 5697 5697 5698 5698 5699 5699 5700 5700 5700 5700
5693 5693 5693 5691 5690 5689 5688 5686 5685 5683 5682 5681 5682 5683 5684 5682 5682 5682 5682 5682 5682 5682 5682 5682 5683 5683 5683 5684 5685 5685 5686 5687 5688 5688 5689 5689 5689 5690 5690 5690 5690 5690 5690 5691
5687 5686 5686 5685 5684 5682 5682 5680 5678 5677 5676 5675 5675 5679 5677 5676 5675 5675 5675 5674 5674 5675 5675 5675 5675 5675 5675 5675 5676 5677 5677 5678 5679 5679 5680 5680 5680 5681 5681 5681 5681 5681 5681 5681
5679 5678 5677 5677 5676 5674 5673 5672 5671 5671 5669 5668 5667 5672 5670 5669 5668 5667 5667 5667 5667 5667 5667 5667 5667 5667 5667 5667 5667 5667 5668 5668 5669 5670 5670 5670 5670 5671 5671 5671 5671 5671 5671 5671
5671 5670 5669 5668 5669 5667 5665 5664 5663 5661 5661 5660 5659 5664 5662 5661 5660 5659 5659 5659 5658 5658 5658 5658 5658 5658 5658 5658 5658 5658 5658 5659 5659 5659 5660 5660 5660 5660 5660 5660 5660 5660 5660 5659
5661 5661 5661 5660 5658 5657 5656 5656 5654 5652 5652 5651 5652 5653 5654 5651 5650 5650 5650 5650 5649 5649 5649 5649 5649 5649 5648 5648 5648 5648 5648 5648 5649 5649 5649 5649 5650 5650 5650 5649 5649 5649 5648 5648
5651 5651 5650 5649 5648 5647 5646 5646 5644 5643 5642 5642 5643 5642 5644 5642 5640 5640 5640 5639 5639 5639 5639 5639 5639 5639 5638 5638 5638 5638 5638 5638 5638 5638 5638 5638 5638 5638 5638 5638 5637 5637 5636 5636
5640 5639 5638 5638 5638 5636 5635 5635 5634 5633 5632 5631 5631 5632 5632 5630 5630 5630 5630 5629 5629 5628 5628 5628 5628 5627 5627 5627 5627 5627 5627 5627 5626 5626 5626 5626 5626 5626 5626 5625 5625 5624 5624 5624
5629 5627 5626 5625 5625 5623 5624 5626 5624 5622 5621 5620 5619 5621 5619 5619 5618 5618 5618 5618 5617 5617 5617 5617 5616 5616 5615 5615 5615 5615 5615 5614 5614 5614 5614 5614 5613 5613 5613 5612 5612 5611 5611 5611
5616 5615 5612 5611 5611 5610 5615 5613 5612 5610 5609 5608 5607 5607 5607 5606 5606 5606 5606 5605 5605 5605 5604 5604 5604 5603 5603 5602 5602 5602 5602 5601 5601 5601 5601 5601 5600 5600 5599 5599 5598 5598 5597 5597
5604 5602 5599 5598 5596 5596 5601 5601 5599 5596 5596 5597 5595 5595 5594 5593 5593 5594 5593 5592 5592 5592 5592 5591 5591 5590 5590 5589 5589 5589 5588 5588 5587 5587 5587 5587 5586 5585 5585 5584 5584 5584 5583 5583
5591 5589 5588 5585 5583 5583 5588 5587 5584 5583 5583 5584 5582 5581 5581 5580 5580 5582 5581 5580 5579 5579 5578 5578 5577 5577 5577 5576 5575 5575 5575 5574 5573 5573 5572 5572 5571 5570 5570 5570 5569 5569 5568 5568
5578 5576 5574 5572 5569 5569 5573 5572 5571 5571 5571 5569 5568 5567 5567 5567 5567 5567 5567 5566 5565 5565 5564 5564 5564 5563 5563 5562 5561 5561 5560 5560 5559 5558 5557 5557 5556 5555 5555 5554 5554 5553 5553 5553
5564 5563 5561 5559 5556 5559 5560 5558 5558 5556 5555 5555 5554 5554 5553 5553 5553 5553 5553 5552 5551 5551 5550 5550 5550 5549 5548 5547 5547 5546 5546 5544 5543 5543 5542 5541 5540 5540 5539 5539 5538 5538 5537 5537
5551 5551 5547 5546 5547 5546 5545 5543 5542 5541 5541 5540 5540 5540 5539 5539 5539 5539 5538 5538 5537 5536 5536 5536 5535 5535 5534 5533 5531 5531 5530 5529 5528 5528 5527 5526 5525 5524 5523 5523 5522 5522 5522 5521
5538 5536 5533 5531 5532 5531 5530 5528 5527 5526 5526 5525 5525 5525 5524 5524 5524 5524 5524 5523 5522 5522 5521 5521 5520 5520 5519 5518 5516 5515 5514 5513 5512 5512 5511 5510 5509 5508 5508 5507 5506 5506 5506 5505
5524 5521 5517 5516 5517 5516 5516 5514 5513 5512 5511 5510 5510 5510 5509 5509 5509 5509 5508 5508 5507 5506 5505 5505 5504 5504 5503 5502 5501 5499 5498 5497 5496 5496 5495 5495 5494 5493 5492 5491 5491 5490 5490 5488
5510 5506 5502 5501 5502 5500 5501 5500 5499 5498 5497 5496 5495 5495 5495 5494 5494 5493 5493 5492 5491 5490 5489 5488 5487 5487 5486 5485 5484 5483 5482 5481 5480 5480 5479 5478 5477 5477 5476 5476 5476 5474 5474 5473
Wind_Speed
10 11 11 11 11 11 12 12 11 11 14 14 15 15 16 18 18 18 19 21 22 24 25 25 24 24 24 26 26 25 25 27 29 30 30 29 28 28 28 29 30 30 32 32
11 11 11 11 11 11 12 13 12 13 14 15 16 16 17 18 19 19 20 21 21 22 24 25 26 25 25 26 26 26 27 27 27 28 28 28 28 28 28 28 29 29 29 30
13 13 12 12 12 13 13 14 14 14 14 15 16 16 17 18 20 20 20 21 21 22 23 23 24 24 25 25 26 27 27 27 27 27 28 29 28 28 28 28 28 29 29 30
14 14 14 13 14 15 15 16 16 16 16 16 17 17 17 19 20 20 21 21 22 23 23 24 24 24 25 26 27 28 28 28 28 29 29 30 30 29 30 29 29 30 30 31
15 16 15 15 15 16 17 17 18 19 19 19 18 19 17 18 19 21 22 22 22 23 24 24 25 26 26 27 28 28 28 29 29 29 30 30 30 30 30 30 30 31 31 31
17 18 18 17 17 18 18 19 20 20 20 20 19 20 19 18 18 20 22 23 24 25 25 25 26 27 27 28 29 29 29 29 29 29 30 31 31 30 30 31 32 32 32 32
19 19 20 20 20 20 20 20 21 21 21 21 20 20 19 19 19 20 21 22 23 24 25 25 26 27 28 29 29 29 30 30 30 31 31 31 32 31 31 31 31 33 34 35
22 22 22 22 22 22 22 22 23 23 23 22 22 21 20 20 20 21 21 22 23 25 26 26 27 28 28 29 30 30 30 31 31 32 32 32 32 32 32 32 32 32 33 34
25 24 24 24 24 24 24 23 24 25 26 25 24 23 22 22 22 23 23 24 25 26 27 28 28 29 29 30 31 31 31 32 33 33 33 34 34 34 35 35 35 34 34 34
27 27 26 26 26 26 26 25 26 26 27 27 26 24 23 24 24 25 25 26 26 27 28 29 30 30 31 32 32 33 34 34 35 36 36 37 37 37 37 37 38 38 37 36
30 30 29 29 29 28 28 28 29 29 29 29 28 26 26 26 25 25 26 27 28 28 29 30 31 32 33 33 34 35 36 36 37 38 38 39 39 39 39 39 39 40 40 39
32 32 32 31 31 31 31 31 31 31 31 31 31 29 28 27 27 27 28 29 30 31 31 32 33 34 34 35 36 37 38 38 39 39 40 40 41 41 41 41 41 42 42 42
33 33 33 33 32 32 32 31 32 33 33 32 32 31 29 29 30 30 30 30 31 31 32 33 34 35 36 36 36 37 38 38 39 39 40 41 41 42 42 42 42 42 42 43
35 35 34 34 33 34 33 33 34 35 36 35 34 32 31 31 32 32 32 32 32 32 33 34 34 35 36 37 37 38 39 39 40 40 41 41 41 42 42 42 42 42 42 42
37 38 37 37 37 37 37 37 38 38 38 39 37 36 34 35 35 35 35 35 35 35 35 36 36 37 37 38 38 39 40 41 41 42 42 42 42 42 43 43 43 43 42 42
41 41 41 41 40 41 41 41 41 40 40 41 41 39 38 39 38 38 38 38 38 38 38 38 39 39 39 40 40 41 42 42 43 43 43 44 44 44 44 44 45 45 45 44
43 43 44 44 43 44 44 41 41 41 41 41 42 40 40 41 41 40 40 40 41 41 40 40 40 40 41 42 42 43 44 44 44 44 44 45 45 45 46 46 46 46 46 46
46 45 46 46 46 47 44 42 42 42 41 42 42 42 42 41 40 41 41 42 42 42 42 41 42 42 43 44 44 45 45 45 46 46 46 46 47 47 47 47 47 47 47 47
46 46 47 47 49 50 47 44 43 44 43 42 42 42 42 43 42 41 41 41 42 42 43 43 43 43 44 44 45 46 46 47 47 47 47 47 48 49 48 48 48 48 48 48
46 46 47 48 49 50 47 46 45 46 46 43 43 43 43 44 44 42 42 42 43 44 45 45 45 45 45 45 46 47 47 48 49 49 50 50 50 50 50 50 49 49 49 49
45 46 47 47 49 49 47 46 45 46 45 45 45 45 45 45 46 45 44 45 46 46 46 47 47 46 46 47 48 48 49 50 50 51 51 51 51 51 51 51 51 51 50 50
46 46 46 47 48 47 45 45 45 45 46 46 46 46 46 47 47 47 47 48 48 48 47 47 47 47 47 48 49 49 50 51 51 51 51 52 52 52 52 52 52 51 51 51
46 46 47 48 49 47 46 46 46 47 48 48 48 48 49 49 49 49 49 49 49 49 49 49 49 49 49 50 50 50 50 51 51 51 51 51 52 52 52 52 51 51 51 51
46 46 48 49 48 46 46 47 47 48 49 49 49 49 49 49 49 49 50 50 51 51 51 51 52 51 51 51 52 52 51 51 52 52 51 51 51 52 52 52 51 51 51 51
46 46 48 49 48 48 48 47 48 48 48 49 49 49 50 50 50 50 51 51 52 53 54 54 54 54 53 53 53 52 52 53 53 53 52 52 51 52 51 51 51 51 51 50
45 46 48 48 47 48 48 48 48 48 48 49 50 50 51 52 52 52 52 53 54 54 55 56 55 55 55 54 54 53 53 54 54 53 53 52 51 51 51 50 50 50 50 50
Wind_Direction
316 308 306 307 305 300 297 296 291 283 272 269 262 258 254 254 251 249 248 249 250 246 246 246 249 251 252 250 248 245 248 250 251 253 253 252 252 252 253 254 254 256 258 260
314 310 305 301 303 299 298 297 293 286 278 271 265 259 256 257 253 253 251 251 254 252 250 251 252 254 254 252 250 250 253 255 256 260 259 256 255 256 257 258 257 259 260 260
311 310 306 300 296 296 297 295 294 290 285 278 267 260 258 258 254 252 253 251 253 255 254 255 254 255 256 254 252 253 255 256 256 257 258 258 260 259 260 264 265 264 264 265
306 307 304 299 295 293 294 293 291 288 284 279 275 267 260 260 256 252 252 253 255 256 255 255 255 256 256 255 254 253 253 254 254 254 256 257 259 261 261 263 266 267 266 266
303 302 301 299 295 294 293 292 290 288 284 281 276 273 266 263 259 254 252 253 254 254 255 254 255 256 257 257 256 254 253 253 254 255 256 259 260 262 262 262 264 266 267 266
296 296 294 293 293 292 292 292 290 287 284 281 277 273 269 265 263 260 256 254 253 252 254 254 254 255 255 256 256 255 254 254 254 255 257 259 261 262 264 264 265 266 267 268
292 292 291 290 289 289 290 291 290 288 284 282 279 275 271 268 266 264 260 256 253 250 250 252 253 254 255 256 255 255 255 254 254 255 257 258 261 263 264 266 267 268 268 268
289 289 289 288 288 288 287 286 286 286 285 282 279 277 274 271 268 266 262 258 256 253 252 253 255 256 257 256 255 255 255 255 256 256 257 259 261 263 265 267 270 271 271 272
287 286 286 285 285 286 285 284 284 283 282 281 278 276 274 273 271 268 265 261 259 257 255 254 255 256 257 257 256 255 256 258 258 259 259 261 263 264 266 267 269 270 272 273
286 284 282 282 283 283 283 282 282 282 282 280 278 277 276 274 271 268 266 263 261 260 258 256 256 257 258 258 256 256 258 260 261 261 262 263 265 267 268 269 270 270 272 272
285 284 282 281 280 281 281 281 280 279 278 279 280 279 277 275 273 270 266 263 261 261 260 259 258 258 259 260 260 259 260 261 263 263 265 266 267 268 269 270 270 271 271 272
284 283 282 282 281 280 280 280 279 277 277 277 279 278 277 275 272 271 268 266 264 263 262 261 260 260 261 261 261 261 261 263 264 265 265 267 268 269 270 271 271 271 272 272
282 282 282 281 280 280 279 279 277 276 276 277 278 279 278 274 271 271 270 269 267 266 265 264 262 262 263 263 263 263 264 265 266 266 266 267 268 269 270 272 273 273 274 274
279 279 279 279 280 280 279 277 276 275 276 277 278 279 277 275 272 271 271 271 270 268 267 267 266 265 265 264 264 265 266 266 267 267 268 269 270 271 272 273 274 274 275 274
276 278 278 277 277 276 276 277 276 276 277 277 277 276 276 275 273 271 272 272 271 269 268 268 268 267 266 266 265 266 267 267 268 269 270 270 271 272 273 273 273 274 274 273
276 276 277 276 276 275 275 276 277 277 276 276 275 274 274 273 273 273 272 271 270 270 269 270 269 269 268 268 267 267 268 269 269 270 271 271 272 272 273 273 274 274 274 274
276 277 276 276 275 275 274 277 277 277 276 276 276 275 273 273 273 272 271 270 270 271 271 271 270 270 270 269 269 269 269 270 270 271 271 272 273 273 274 274 275 275 274 274
275 276 276 276 275 274 276 276 276 276 275 275 274 272 272 272 272 272 272 271 270 270 271 272 271 271 271 271 271 270 270 270 271 271 272 272 273 273 274 274 274 274 274 274
275 275 276 277 276 275 275 277 277 277 275 275 274 273 273 273 272 272 272 272 271 270 270 272 272 272 271 272 272 272 272 272 272 273 273 273 273 274 274 274 273 274 273 273
275 274 274 276 277 277 278 277 276 276 275 274 274 274 274 273 272 272 271 271 271 270 271 272 272 273 272 272 273 273 273 273 273 273 273 273 274 274 274 274 274 274 274 274
275 275 275 275 276 277 278 277 276 275 276 274 274 274 273 272 272 272 271 271 271 271 271 272 273 273 273 273 273 273 273 273 273 273 273 273 274 274 274 275 275 275 274 274
275 275 274 274 274 276 277 275 273 273 272 273 273 273 272 271 271 272 273 273 272 271 271 271 273 274 274 274 274 274 274 274 274 274 274 274 274 274 275 275 275 275 274 274
274 274 274 273 274 275 274 273 273 272 272 272 272 272 272 272 272 272 273 273 273 272 271 271 273 274 274 274 275 276 275 275 275 275 274 274 274 275 275 276 276 275 274 274
275 274 274 274 273 272 272 272 272 272 273 272 272 271 271 272 272 272 273 273 273 272 272 272 273 274 274 274 276 276 276 276 275 275 275 275 276 276 276 276 276 276 275 275
276 276 275 274 273 271 270 271 272 272 272 273 272 271 271 272 273 273 273 274 273 273 273 273 274 274 275 275 276 276 276 275 276 276 276 276 276 276 276 276 276 276 276 276
276 275 275 274 274 273 272 270 271 272 271 271 270 270 271 272 273 274 274 275 275 275 274 274 275 275 276 276 276 276 275 275 276 276 276 276 276 276 276 275 275 276 276 275